Temp
-5 -6 -5 -5 -5 -5 -4 -5 -6 -6 -7 -7 -7 -7 -7 -8 -8 -7 -8 -8 -7 -7 -7 -7 -7 -7 -7 -7 -6 -7 -7 -7 -7 -7 -7 -6 -6 -6 -6 -6 -6 -7 -7 -7 -7 -7 -6 -6 -7
-5 -5 -5 -5 -6 -6 -5 -5 -6 -5 -6 -7 -7 -7 -7 -8 -8 -7 -8 -8 -7 -7 -8 -7 -7 -7 -7 -7 -7 -7 -7 -7 -7 -7 -6 -7 -6 -6 -6 -7 -7 -7 -7 -7 -7 -7 -7 -7 -7
-5 -5 -5 -5 -5 -5 -5 -7 -6 -6 -7 -7 -7 -8 -7 -7 -8 -8 -8 -8 -7 -8 -8 -8 -7 -7 -7 -7 -7 -7 -7 -7 -7 -7 -7 -7 -6 -6 -7 -7 -7 -7 -7 -7 -7 -7 -7 -7 -7
-5 -6 -5 -4 -5 -5 -6 -7 -7 -7 -8 -7 -7 -8 -8 -8 -7 -8 -8 -8 -8 -8 -8 -8 -8 -7 -7 -7 -7 -8 -7 -7 -7 -7 -7 -7 -7 -7 -7 -7 -7 -7 -7 -7 -7 -7 -7 -7 -7
-6 -6 -5 -5 -5 -5 -6 -7 -7 -7 -7 -7 -7 -7 -8 -8 -8 -8 -8 -8 -8 -8 -9 -9 -8 -8 -8 -7 -8 -8 -8 -7 -7 -7 -8 -7 -7 -7 -7 -7 -7 -7 -7 -7 -7 -7 -7 -7 -7
-6 -6 -6 -6 -6 -5 -6 -7 -7 -7 -7 -7 -7 -7 -8 -8 -7 -8 -8 -8 -8 -8 -9 -9 -9 -9 -9 -8 -8 -8 -8 -8 -7 -8 -8 -8 -7 -7 -7 -7 -7 -8 -7 -7 -7 -7 -7 -7 -7
-6 -6 -6 -6 -5 -5 -6 -6 -6 -6 -6 -7 -7 -8 -8 -8 -7 -8 -8 -7 -8 -8 -9 -9 -9 -9 -9 -9 -9 -9 -8 -8 -8 -8 -8 -8 -8 -8 -8 -8 -8 -8 -7 -7 -7 -7 -7 -7 -7
-6 -5 -5 -5 -4 -5 -6 -8 -6 -6 -6 -7 -7 -7 -8 -8 -8 -8 -8 -8 -8 -8 -8 -9 -9 -9 -9 -9 -9 -9 -9 -9 -9 -9 -10 -9 -9 -9 -8 -8 -8 -8 -8 -8 -7 -7 -7 -8 -7
-6 -5 -5 -4 -5 -5 -6 -6 -6 -6 -6 -7 -7 -6 -7 -7 -8 -8 -8 -8 -9 -9 -8 -9 -9 -9 -9 -9 -9 -9 -10 -10 -10 -9 -9 -10 -9 -8 -8 -8 -8 -8 -8 -8 -8 -8 -8 -8 -8
-5 -6 -5 -5 -4 -4 -5 -5 -6 -7 -6 -7 -7 -7 -7 -7 -8 -7 -8 -8 -8 -9 -9 -9 -9 -9 -9 -9 -9 -9 -9 -9 -9 -9 -9 -9 -9 -8 -8 -8 -7 -7 -8 -8 -8 -8 -8 -8 -8
-5 -5 -6 -5 -5 -5 -5 -6 -6 -7 -6 -7 -7 -7 -8 -7 -7 -7 -8 -8 -9 -9 -9 -9 -9 -9 -8 -9 -9 -9 -9 -9 -9 -9 -9 -8 -8 -8 -8 -8 -7 -7 -8 -8 -8 -8 -8 -8 -8
-6 -5 -5 -5 -5 -5 -6 -6 -6 -7 -6 -6 -7 -7 -8 -8 -7 -7 -8 -8 -8 -9 -9 -9 -9 -9 -8 -9 -9 -9 -9 -9 -8 -8 -8 -8 -8 -8 -8 -8 -8 -7 -7 -7 -8 -9 -9 -8 -9
-6 -5 -6 -5 -5 -6 -6 -6 -5 -6 -6 -6 -6 -7 -7 -8 -7 -7 -7 -8 -8 -8 -9 -9 -8 -8 -8 -9 -9 -9 -9 -8 -9 -8 -8 -8 -8 -8 -8 -7 -7 -7 -7 -7 -7 -8 -8 -8 -8
-6 -5 -6 -6 -6 -5 -6 -6 -6 -6 -6 -6 -6 -6 -7 -7 -7 -7 -8 -8 -8 -8 -8 -9 -9 -9 -9 -9 -9 -9 -8 -8 -9 -8 -8 -8 -8 -8 -8 -7 -7 -7 -7 -7 -8 -8 -9 -8 -8
-6 -5 -5 -5 -5 -6 -5 -6 -6 -6 -6 -7 -7 -6 -7 -7 -7 -7 -8 -8 -8 -8 -8 -8 -8 -9 -9 -8 -8 -8 -8 -8 -9 -8 -8 -8 -8 -8 -8 -8 -7 -8 -8 -8 -8 -8 -9 -9 -8
-7 -6 -5 -5 -6 -6 -5 -6 -6 -6 -6 -6 -6 -7 -6 -7 -7 -7 -7 -8 -8 -8 -8 -8 -8 -8 -8 -8 -9 -8 -8 -9 -8 -8 -8 -8 -8 -8 -8 -8 -8 -8 -9 -8 -8 -9 -9 -9 -7
-6 -7 -5 -6 -5 -6 -6 -6 -6 -6 -6 -6 -6 -7 -6 -7 -6 -6 -7 -8 -7 -8 -8 -8 -8 -8 -8 -8 -8 -8 -8 -9 -8 -8 -8 -8 -8 -8 -8 -8 -8 -8 -9 -9 -9 -9 -9 -8 -8
-8 -7 -6 -5 -6 -5 -6 -6 -6 -6 -6 -6 -6 -6 -6 -6 -6 -6 -7 -7 -7 -7 -8 -8 -8 -8 -8 -8 -8 -8 -8 -8 -8 -8 -8 -8 -8 -7 -8 -7 -8 -9 -9 -10 -10 -9 -9 -9 -9
-8 -8 -8 -6 -6 -6 -6 -6 -6 -6 -5 -6 -6 -6 -7 -6 -6 -6 -6 -6 -6 -7 -7 -8 -8 -8 -8 -8 -7 -8 -8 -8 -8 -8 -8 -8 -8 -7 -8 -8 -8 -9 -9 -9 -9 -9 -8 -9 -9
-9 -7 -8 -7 -6 -6 -6 -5 -5 -6 -6 -7 -6 -6 -7 -7 -6 -6 -6 -6 -6 -6 -7 -8 -7 -7 -8 -8 -7 -8 -8 -7 -7 -7 -8 -7 -8 -8 -8 -8 -8 -8 -9 -9 -9 -9 -8 -8 -9
-9 -8 -8 -8 -7 -7 -7 -6 -6 -6 -6 -6 -6 -6 -6 -6 -6 -7 -7 -7 -6 -6 -6 -7 -7 -8 -8 -7 -7 -7 -7 -7 -7 -7 -7 -7 -8 -8 -7 -7 -8 -8 -9 -9 -9 -9 -8 -8 -9
-9 -8 -8 -8 -7 -7 -7 -7 -6 -6 -6 -6 -5 -5 -6 -6 -6 -7 -7 -7 -6 -6 -6 -6 -7 -7 -8 -7 -7 -7 -7 -7 -7 -7 -8 -7 -8 -7 -8 -8 -8 -8 -8 -8 -8 -9 -9 -9 -9
-9 -8 -9 -8 -8 -8 -7 -6 -6 -5 -6 -6 -6 -7 -7 -6 -5 -6 -6 -6 -7 -6 -7 -6 -6 -7 -7 -7 -7 -7 -7 -7 -7 -7 -7 -7 -7 -7 -8 -8 -7 -7 -7 -8 -8 -8 -9 -9 -9
-9 -9 -8 -9 -8 -8 -7 -6 -6 -5 -7 -6 -6 -6 -7 -7 -6 -6 -6 -6 -6 -7 -7 -7 -6 -7 -7 -7 -7 -7 -7 -7 -7 -7 -7 -7 -7 -7 -7 -7 -7 -8 -7 -8 -8 -8 -8 -9 -8
-10 -10 -9 -9 -8 -8 -7 -6 -6 -6 -6 -6 -5 -5 -6 -7 -7 -6 -6 -6 -6 -7 -7 -7 -7 -7 -7 -7 -6 -7 -7 -6 -6 -7 -7 -7 -7 -7 -7 -7 -7 -8 -7 -8 -7 -8 -8 -8 -8
-9 -10 -9 -9 -9 -9 -8 -7 -6 -7 -7 -7 -6 -6 -7 -7 -6 -6 -6 -6 -6 -6 -7 -7 -7 -7 -7 -7 -7 -7 -7 -7 -7 -6 -6 -7 -7 -7 -7 -7 -7 -7 -7 -7 -7 -7 -7 -7 -7
-10 -10 -10 -9 -8 -9 -9 -8 -7 -7 -8 -8 -7 -7 -6 -6 -6 -6 -6 -6 -6 -6 -6 -6 -7 -7 -7 -6 -6 -6 -6 -7 -7 -7 -6 -6 -6 -7 -7 -6 -7 -7 -7 -8 -7 -7 -7 -7 -7
-11 -11 -9 -10 -9 -9 -9 -8 -8 -8 -8 -7 -7 -7 -8 -8 -6 -6 -6 -6 -6 -6 -5 -6 -6 -7 -7 -7 -6 -6 -6 -6 -7 -7 -6 -6 -6 -6 -6 -6 -6 -6 -6 -7 -7 -7 -7 -7 -7
-11 -11 -11 -11 -11 -11 -10 -9 -8 -8 -8 -8 -7 -7 -7 -7 -7 -6 -7 -7 -7 -6 -6 -6 -7 -6 -7 -7 -7 -7 -7 -6 -7 -7 -7 -7 -7 -6 -7 -7 -7 -6 -7 -7 -7 -7 -7 -7 -7
-12 -12 -12 -12 -12 -11 -10 -9 -8 -8 -8 -8 -7 -7 -7 -6 -6 -6 -6 -7 -7 -6 -6 -6 -7 -7 -7 -7 -7 -7 -7 -7 -7 -7 -7 -7 -7 -7 -7 -7 -7 -7 -7 -7 -7 -7 -7 -6 -6
Height
5877 5878 5877 5877 5881 5878 5880 5880 5878 5877 5876 5877 5875 5874 5874 5873 5873 5875 5873 5873 5873 5871 5870 5871 5871 5871 5872 5871 5871 5871 5872 5875 5878 5880 5881 5884 5887 5889 5892 5893 5895 5896 5897 5899 5900 5901 5903 5903 5902
5878 5878 5878 5877 5880 5879 5880 5880 5881 5879 5879 5878 5877 5877 5875 5874 5875 5875 5874 5874 5874 5872 5873 5873 5873 5873 5873 5872 5872 5873 5874 5876 5878 5882 5883 5886 5890 5892 5893 5895 5898 5899 5900 5901 5902 5902 5904 5904 5905
5879 5879 5879 5879 5879 5881 5880 5880 5877 5878 5877 5877 5877 5877 5877 5877 5876 5876 5876 5876 5876 5874 5874 5874 5873 5874 5876 5874 5873 5873 5875 5878 5880 5883 5885 5888 5891 5893 5895 5897 5899 5900 5901 5903 5903 5904 5905 5906 5906
5880 5881 5880 5880 5880 5881 5881 5882 5880 5880 5879 5878 5877 5879 5879 5878 5878 5877 5877 5878 5877 5876 5877 5877 5876 5876 5877 5876 5874 5875 5877 5879 5881 5884 5886 5890 5892 5893 5896 5898 5900 5901 5904 5904 5906 5907 5907 5906 5906
5880 5880 5879 5881 5881 5882 5883 5884 5884 5884 5882 5881 5880 5880 5881 5880 5881 5879 5879 5879 5879 5879 5879 5880 5880 5880 5879 5878 5876 5877 5878 5880 5881 5884 5886 5890 5892 5895 5898 5899 5901 5903 5904 5906 5907 5908 5908 5908 5907
5879 5879 5880 5882 5882 5884 5884 5885 5886 5887 5884 5882 5881 5881 5883 5883 5881 5881 5881 5881 5880 5880 5881 5882 5882 5882 5881 5879 5878 5879 5881 5883 5882 5884 5887 5891 5895 5898 5900 5901 5902 5904 5905 5907 5908 5910 5910 5909 5909
5877 5879 5882 5882 5883 5884 5884 5885 5887 5889 5887 5885 5884 5882 5885 5885 5884 5882 5882 5883 5883 5882 5883 5884 5885 5886 5885 5884 5884 5884 5885 5883 5885 5887 5892 5896 5898 5901 5903 5904 5906 5906 5907 5909 5910 5910 5911 5912 5912
5877 5881 5882 5883 5884 5886 5886 5887 5889 5889 5888 5888 5887 5885 5887 5887 5885 5884 5885 5884 5884 5885 5887 5887 5887 5888 5889 5888 5890 5891 5891 5890 5892 5892 5897 5899 5901 5901 5903 5905 5908 5909 5910 5912 5912 5912 5914 5916 5918
5878 5880 5881 5885 5884 5886 5888 5889 5889 5888 5889 5890 5889 5888 5888 5889 5887 5887 5887 5887 5886 5888 5889 5889 5890 5892 5893 5894 5894 5895 5896 5896 5896 5897 5898 5901 5903 5905 5908 5910 5911 5912 5914 5916 5916 5917 5919 5922 5922
5879 5880 5882 5887 5886 5887 5889 5889 5890 5890 5890 5891 5890 5889 5890 5891 5889 5888 5888 5889 5889 5889 5890 5891 5892 5894 5896 5897 5897 5899 5901 5902 5902 5904 5905 5906 5907 5908 5910 5912 5913 5915 5917 5918 5919 5919 5922 5924 5925
5877 5880 5883 5884 5885 5887 5889 5891 5890 5891 5891 5893 5892 5890 5891 5891 5890 5889 5889 5892 5891 5891 5892 5893 5895 5897 5898 5900 5901 5901 5904 5905 5906 5908 5909 5910 5910 5912 5914 5915 5917 5919 5921 5921 5920 5922 5925 5925 5926
5880 5881 5883 5883 5884 5887 5888 5890 5890 5890 5893 5895 5895 5894 5894 5893 5892 5892 5893 5895 5894 5894 5895 5896 5898 5899 5901 5903 5905 5904 5907 5908 5909 5911 5911 5911 5913 5917 5919 5920 5921 5923 5923 5923 5922 5923 5925 5925 5926
5880 5882 5881 5881 5883 5887 5889 5889 5890 5891 5892 5894 5897 5896 5895 5894 5895 5896 5897 5896 5897 5897 5897 5899 5901 5902 5904 5906 5907 5908 5910 5910 5912 5914 5914 5914 5916 5919 5921 5924 5924 5925 5925 5924 5924 5926 5926 5927 5929
5880 5880 5879 5879 5883 5886 5887 5889 5890 5893 5893 5894 5895 5896 5896 5896 5897 5896 5898 5897 5899 5899 5899 5901 5904 5905 5907 5909 5909 5911 5912 5914 5915 5916 5917 5917 5918 5921 5924 5926 5926 5928 5928 5929 5929 5931 5931 5931 5932
5878 5880 5880 5880 5883 5885 5887 5888 5890 5890 5892 5894 5895 5896 5897 5898 5897 5897 5899 5900 5902 5901 5902 5904 5905 5907 5909 5910 5911 5913 5914 5915 5916 5918 5918 5918 5922 5925 5924 5927 5929 5931 5931 5932 5932 5934 5934 5933 5933
5877 5878 5880 5881 5883 5885 5885 5887 5888 5890 5893 5894 5895 5896 5898 5898 5898 5899 5901 5902 5904 5905 5906 5907 5907 5910 5911 5913 5914 5914 5916 5918 5917 5919 5919 5922 5925 5925 5927 5930 5931 5932 5932 5934 5936 5938 5937 5936 5939
5875 5877 5877 5880 5878 5882 5884 5885 5886 5886 5890 5892 5894 5895 5897 5898 5900 5900 5902 5903 5905 5906 5907 5908 5909 5912 5914 5914 5916 5917 5918 5921 5922 5922 5923 5925 5927 5927 5930 5933 5931 5932 5933 5937 5939 5940 5939 5940 5945
5871 5872 5870 5865 5874 5877 5881 5883 5884 5886 5885 5889 5893 5895 5896 5898 5899 5900 5904 5905 5907 5908 5908 5910 5912 5913 5915 5917 5918 5919 5921 5922 5924 5925 5924 5926 5928 5929 5932 5933 5932 5932 5933 5936 5939 5941 5943 5944 5945
5864 5867 5869 5871 5871 5871 5876 5881 5882 5882 5884 5886 5889 5893 5895 5897 5899 5899 5903 5906 5908 5909 5910 5913 5914 5914 5916 5918 5920 5921 5922 5924 5926 5927 5927 5928 5930 5930 5931 5934 5934 5934 5935 5938 5941 5944 5945 5946 5948
5863 5863 5864 5863 5862 5864 5869 5874 5877 5879 5879 5884 5887 5890 5893 5896 5898 5900 5902 5905 5908 5909 5912 5914 5916 5916 5917 5920 5921 5923 5924 5924 5926 5929 5930 5930 5931 5932 5932 5935 5935 5935 5937 5940 5943 5944 5946 5948 5947
5860 5863 5864 5864 5863 5864 5868 5872 5875 5877 5878 5884 5884 5887 5890 5894 5898 5899 5901 5904 5907 5910 5912 5914 5916 5918 5919 5920 5923 5924 5925 5926 5926 5928 5930 5930 5931 5933 5935 5936 5936 5937 5938 5941 5943 5943 5945 5946 5948
5859 5860 5862 5864 5866 5867 5870 5872 5873 5877 5880 5883 5883 5886 5889 5892 5896 5898 5901 5902 5907 5909 5910 5914 5916 5918 5919 5920 5923 5925 5926 5926 5927 5928 5930 5930 5932 5933 5934 5935 5936 5939 5939 5941 5943 5944 5946 5947 5946
5858 5858 5860 5864 5864 5868 5870 5870 5872 5874 5877 5879 5882 5884 5887 5891 5894 5897 5900 5903 5907 5910 5911 5913 5917 5919 5920 5921 5921 5924 5925 5927 5927 5928 5930 5930 5932 5933 5935 5936 5938 5940 5941 5942 5943 5944 5946 5947 5947
5851 5855 5858 5861 5862 5866 5867 5870 5870 5869 5871 5875 5878 5884 5885 5888 5892 5896 5900 5902 5905 5909 5911 5913 5915 5918 5920 5921 5922 5924 5926 5927 5928 5929 5931 5931 5932 5933 5935 5937 5938 5940 5942 5942 5943 5944 5945 5947 5948
5847 5851 5855 5859 5861 5864 5866 5869 5869 5868 5869 5874 5875 5880 5883 5886 5890 5894 5897 5901 5903 5907 5911 5912 5915 5916 5919 5920 5921 5923 5926 5927 5928 5929 5931 5932 5932 5932 5934 5936 5938 5940 5941 5942 5943 5945 5945 5947 5948
5853 5854 5854 5856 5858 5862 5864 5868 5869 5871 5870 5872 5875 5876 5879 5885 5888 5892 5894 5898 5902 5905 5910 5912 5913 5916 5918 5919 5921 5922 5923 5924 5927 5930 5931 5933 5935 5935 5935 5936 5937 5938 5941 5942 5943 5945 5947 5947 5947
5848 5850 5854 5853 5856 5858 5862 5866 5868 5871 5872 5873 5875 5876 5878 5882 5888 5891 5893 5896 5900 5903 5906 5909 5911 5914 5916 5917 5920 5921 5922 5924 5927 5928 5930 5932 5934 5936 5937 5938 5937 5938 5939 5941 5942 5943 5946 5948 5948
5847 5848 5848 5849 5854 5856 5861 5864 5866 5868 5873 5875 5874 5877 5879 5881 5884 5886 5891 5894 5896 5899 5902 5906 5910 5912 5914 5916 5917 5920 5921 5921 5924 5927 5929 5930 5933 5934 5935 5937 5938 5937 5939 5940 5941 5943 5944 5945 5946
5843 5845 5846 5847 5851 5856 5860 5864 5866 5870 5873 5873 5875 5878 5881 5884 5884 5884 5887 5891 5894 5896 5900 5904 5908 5911 5913 5914 5916 5918 5920 5922 5922 5924 5927 5929 5931 5933 5934 5935 5936 5937 5938 5939 5939 5940 5941 5942 5943
5839 5840 5845 5849 5853 5856 5860 5865 5866 5867 5871 5872 5874 5875 5876 5879 5883 5886 5886 5889 5891 5895 5897 5900 5903 5908 5910 5911 5912 5915 5917 5920 5921 5922 5923 5925 5928 5930 5931 5933 5934 5936 5935 5935 5936 5937 5938 5939 5939
Wind_Speed
3 3 5 5 5 7 11 15 17 16 14 11 9 13 12 13 8 8 9 8 6 12 12 12 15 14 16 15 15 15 13 9 10 14 18 15 13 12 12 13 15 19 18 14 13 13 11 10 13
3 4 7 8 4 7 12 16 12 13 17 13 10 10 12 14 9 8 7 6 5 12 10 10 12 14 16 14 13 14 9 11 17 14 14 17 17 16 15 15 19 18 16 14 13 13 13 15 15
4 4 8 7 1 4 12 14 18 14 14 15 12 11 11 12 10 9 6 5 6 11 9 10 10 13 15 12 10 15 12 12 15 15 20 17 15 19 20 19 19 17 16 14 14 14 15 15 15
6 4 9 4 2 7 13 13 13 11 9 10 10 8 9 12 10 10 7 5 9 11 10 9 10 12 14 13 12 14 13 11 16 22 23 19 21 20 20 19 18 16 14 15 14 15 16 16 15
5 8 13 6 2 5 16 14 12 8 5 8 7 10 9 10 10 10 9 4 9 13 13 11 12 13 15 15 14 16 14 13 20 29 27 24 22 22 21 19 17 16 15 15 15 16 16 16 14
10 12 10 6 6 6 12 8 8 5 7 8 7 14 9 10 9 12 10 8 8 14 14 13 13 14 17 17 16 17 16 15 19 29 28 25 23 21 19 18 16 17 17 16 17 16 16 16 13
9 10 8 7 6 9 14 10 9 3 7 6 5 12 7 8 11 12 9 11 12 13 15 15 14 14 16 19 19 17 19 22 23 24 26 23 20 18 17 16 16 16 15 15 18 18 16 14 15
5 10 11 6 10 7 4 7 7 9 9 9 7 9 8 8 12 13 12 15 14 15 16 17 16 15 15 17 19 19 20 21 20 23 23 21 21 20 19 19 18 16 16 16 17 16 14 15 17
6 10 9 4 5 8 8 3 6 13 13 10 9 9 11 9 13 13 13 17 18 16 16 17 16 15 14 15 16 18 20 20 22 20 21 19 16 16 16 16 17 16 16 16 16 15 15 14 18
2 6 13 8 7 9 8 6 9 8 14 11 9 10 10 11 13 12 13 15 16 18 16 15 15 15 15 14 12 17 18 18 17 17 16 15 15 13 15 15 16 17 17 16 15 14 15 16 17
4 4 15 9 9 6 10 5 7 9 10 8 7 10 6 11 10 12 15 13 11 12 18 15 14 13 13 12 10 18 18 16 15 16 14 13 13 13 15 14 13 16 17 17 16 16 17 19 18
8 13 10 15 15 7 6 4 6 7 5 7 5 10 8 9 9 11 13 14 14 10 16 15 15 14 12 15 15 19 22 15 14 16 14 13 12 11 12 13 13 14 17 17 18 19 20 21 20
7 5 8 8 20 14 9 6 4 4 7 6 6 7 9 8 7 12 11 15 13 12 13 14 14 14 13 18 13 17 16 14 12 13 13 15 15 13 11 12 12 14 14 17 16 17 19 19 17
11 9 7 10 22 11 16 6 2 5 9 8 7 8 8 7 4 11 10 13 13 14 14 14 14 14 13 17 14 15 15 15 12 13 14 14 14 13 13 10 11 14 14 15 14 15 17 16 14
13 13 8 10 16 10 13 6 3 4 11 5 4 6 7 5 4 10 11 12 12 13 13 14 16 17 16 16 12 13 14 12 13 12 13 14 15 16 15 13 12 10 14 14 13 13 15 15 13
12 13 13 11 11 10 12 9 4 1 9 7 3 2 5 5 3 7 10 11 10 11 13 13 15 16 16 16 14 11 15 13 7 11 11 14 17 15 14 12 10 9 11 12 11 11 12 9 6
17 15 18 15 15 14 12 11 6 5 6 6 6 5 6 6 3 7 11 8 10 9 12 12 13 14 16 17 16 13 11 11 10 10 13 13 16 15 13 12 10 10 9 11 11 9 10 7 5
20 25 25 22 23 20 13 10 7 9 14 4 7 7 7 7 5 6 9 9 12 8 10 10 10 10 13 17 15 16 11 10 10 9 11 12 14 14 12 11 12 10 10 11 13 11 10 8 5
27 24 18 15 20 25 11 15 6 14 12 3 3 10 7 7 6 6 7 9 11 12 11 10 13 12 10 14 16 15 13 12 11 9 10 11 12 12 10 9 11 11 12 12 13 10 8 7 6
21 30 21 19 8 22 18 20 16 20 7 11 7 11 11 10 9 8 7 7 9 12 10 10 11 15 13 12 16 16 15 13 12 11 11 13 15 14 13 12 12 11 13 15 14 9 4 5 3
29 26 26 23 19 21 19 12 18 13 9 13 12 14 15 15 13 11 9 6 9 9 12 10 10 12 14 13 14 17 16 15 13 12 12 13 10 10 10 11 10 11 11 11 12 10 5 2 1
29 29 21 19 20 15 16 11 11 13 25 14 13 15 18 18 16 13 13 10 9 10 11 12 11 13 14 14 14 15 16 16 15 15 13 15 13 11 10 9 8 8 9 9 9 8 6 3 3
33 20 18 18 19 8 8 13 19 13 15 12 16 12 14 16 19 18 17 13 10 11 10 10 11 12 13 14 14 12 13 12 12 13 14 13 13 13 12 10 9 8 7 7 6 6 4 2 2
33 32 30 14 19 19 17 12 12 17 22 20 20 19 17 21 17 18 17 16 13 12 13 13 12 12 13 12 14 15 15 14 11 9 12 14 12 13 11 9 7 4 5 6 4 5 4 4 4
33 15 31 21 22 19 15 12 9 10 19 22 19 25 20 19 22 19 19 17 16 14 14 15 14 14 14 14 14 14 14 15 13 10 10 9 9 9 10 9 8 6 6 5 4 4 4 3 3
22 19 15 19 16 15 11 11 14 5 13 17 13 21 23 21 27 21 20 20 17 17 17 16 17 17 15 16 15 16 16 16 15 13 11 12 11 10 10 11 11 9 6 5 4 2 2 3 4
26 22 20 23 21 19 8 9 7 11 9 10 11 8 22 26 28 24 21 23 21 21 22 21 19 19 18 17 16 17 17 16 16 14 13 12 10 9 8 8 9 9 7 6 5 5 4 4 3
18 22 33 12 22 14 11 8 15 17 10 3 11 13 8 11 19 26 26 27 29 31 25 25 22 20 20 19 18 17 16 17 16 16 14 12 11 11 11 9 8 7 5 6 8 8 6 6 5
21 26 22 10 6 1 6 6 11 8 8 5 6 10 9 11 9 21 14 21 29 31 23 26 24 21 22 21 22 21 19 19 20 18 15 14 13 13 12 12 13 10 9 10 10 8 8 8 8
22 30 21 22 12 9 14 11 6 6 9 6 5 9 12 8 12 21 19 19 17 28 19 20 25 24 24 24 22 23 22 20 20 20 19 17 15 16 15 16 17 15 15 13 12 10 10 9 9
Wind_Direction
22 274 277 5 45 46 66 77 80 79 91 99 87 91 89 68 117 77 83 82 96 92 93 83 72 72 67 67 72 67 124 172 170 163 161 149 142 140 141 131 127 129 122 119 113 105 102 119 108
339 279 281 7 47 52 62 79 72 74 90 89 79 77 84 92 82 81 90 94 115 93 84 76 71 67 68 62 69 85 108 140 181 170 146 140 137 125 115 123 126 124 127 123 121 125 128 115 111
333 259 284 315 89 68 78 76 50 38 45 62 74 77 78 96 97 97 93 111 120 94 82 72 63 65 70 67 73 103 83 144 174 166 154 140 134 124 123 124 125 128 132 134 131 129 127 122 110
295 262 268 342 77 65 91 100 54 42 26 44 58 64 67 88 97 93 93 116 114 98 91 79 72 66 68 64 76 121 124 138 171 182 140 140 133 126 125 132 135 136 136 128 129 132 127 117 113
263 267 261 262 286 134 99 99 72 53 44 58 76 54 67 89 86 90 97 92 112 105 96 92 79 71 67 72 83 114 121 135 173 142 133 133 130 133 137 140 139 138 130 132 132 128 117 109 106
265 248 244 233 200 143 112 103 68 45 50 48 63 68 74 78 97 71 80 101 102 110 105 97 90 86 79 75 88 108 126 138 149 134 136 136 137 137 139 137 139 136 136 134 128 116 108 108 117
201 212 199 223 180 110 115 112 61 111 75 61 68 81 56 84 76 75 83 95 108 110 109 108 106 102 96 94 98 110 119 132 132 137 136 134 133 131 134 134 136 132 132 133 122 116 118 123 123
167 182 203 210 170 100 115 123 63 77 76 63 64 70 79 78 69 72 81 90 96 111 115 115 116 115 110 103 96 105 116 117 122 124 125 129 138 138 141 141 138 135 132 124 118 121 123 122 116
138 211 176 212 138 165 172 142 86 107 76 65 58 53 81 74 72 77 86 93 98 104 115 120 122 121 111 114 115 111 109 107 104 125 140 134 134 132 129 132 136 132 125 119 121 122 116 114 115
90 204 195 199 164 159 148 119 90 86 79 64 53 54 74 81 83 80 81 92 108 114 116 120 124 121 113 122 116 123 119 113 112 110 119 133 128 135 141 144 141 133 125 123 120 119 118 124 119
136 225 187 186 162 176 123 148 123 122 65 72 72 74 58 72 77 69 90 78 85 110 122 119 125 120 114 111 92 124 117 115 112 107 115 124 130 142 143 142 138 128 126 128 128 134 134 129 122
131 114 170 209 236 208 142 128 114 77 71 88 78 86 85 79 79 80 93 96 98 95 121 122 128 120 111 101 104 103 122 124 122 116 121 124 128 129 137 137 133 131 131 137 144 147 140 135 128
234 186 204 178 182 171 163 114 123 58 122 80 88 83 86 100 105 87 91 102 104 100 115 118 120 118 112 114 123 119 122 122 108 109 118 117 125 120 131 131 137 133 138 149 156 155 149 139 133
236 240 233 213 197 196 176 185 154 232 134 100 61 68 78 99 100 91 89 92 101 103 109 119 124 118 115 124 137 123 126 124 117 132 123 108 110 110 118 128 134 137 147 152 153 164 145 136 145
229 231 198 180 187 186 194 160 137 232 190 112 66 55 73 78 67 98 99 98 103 105 111 119 119 122 124 124 132 130 127 133 132 114 106 101 112 120 126 128 140 142 149 152 160 168 151 159 161
208 205 191 213 215 195 199 209 206 217 205 278 249 90 103 78 108 116 104 110 108 117 114 117 117 128 128 129 134 138 125 121 97 112 101 113 123 132 130 131 136 140 155 152 165 167 166 174 132
209 214 203 200 183 191 188 210 177 228 278 229 233 173 130 108 161 102 104 119 117 118 113 118 130 134 136 131 133 130 129 124 131 121 115 124 131 139 138 139 135 138 146 152 163 172 175 173 106
224 237 222 203 184 219 197 201 171 263 256 212 214 158 164 149 147 121 127 126 136 129 119 122 133 140 144 138 137 134 135 135 135 141 123 134 147 147 143 147 143 142 141 164 168 178 177 165 153
225 227 254 229 234 200 198 203 196 235 240 206 253 169 187 157 155 127 146 140 148 142 137 140 137 135 150 156 153 146 152 145 144 145 137 155 166 150 150 153 135 147 152 158 163 173 178 177 182
216 230 214 241 336 177 192 218 198 224 260 298 263 180 189 181 162 151 163 162 135 147 143 144 142 129 135 163 159 156 166 154 151 156 148 154 158 164 154 144 140 150 151 157 156 180 182 157 191
224 235 252 249 289 251 279 224 216 229 248 279 169 190 184 183 169 161 161 198 159 155 144 155 147 135 135 142 146 154 164 159 165 163 149 148 156 164 148 137 142 150 152 166 165 174 199 190 166
223 238 247 241 260 269 274 266 221 285 220 231 176 178 173 178 182 174 169 189 186 165 159 154 155 149 145 141 145 151 155 160 161 160 161 158 164 162 154 154 149 143 150 175 172 181 191 247 322
224 219 212 258 246 254 273 300 268 286 221 218 183 181 184 183 181 177 177 178 180 171 177 168 163 162 154 146 147 152 151 157 170 161 158 161 165 165 157 171 167 148 158 173 181 186 200 224 307
230 222 232 235 255 255 265 304 283 278 228 227 198 194 177 182 199 188 182 178 169 169 182 183 173 173 165 159 151 151 157 157 165 165 159 164 168 156 165 182 173 157 160 154 173 165 161 207 210
234 239 224 240 255 240 255 286 254 234 221 222 219 209 194 193 193 200 191 185 176 187 197 186 186 185 181 172 164 155 153 151 155 160 159 159 170 169 173 176 169 183 194 174 195 157 153 189 212
237 234 218 214 202 201 221 223 231 240 193 196 211 199 201 202 202 203 182 188 191 192 203 200 195 193 190 187 182 167 164 157 162 164 167 172 178 180 181 178 178 181 183 182 209 243 208 225 238
230 225 226 194 197 169 163 193 213 203 86 127 116 172 208 211 204 201 202 206 206 208 200 205 201 201 200 193 194 185 176 172 172 172 177 174 178 182 206 203 194 197 187 187 206 229 242 255 243
222 240 235 204 156 134 160 167 164 164 159 235 184 160 165 161 198 207 221 222 218 214 212 207 207 204 205 200 200 205 196 181 183 190 191 188 194 194 201 218 223 218 225 223 227 239 243 250 246
220 228 248 269 283 235 150 133 191 172 127 216 161 204 210 214 205 194 197 200 210 211 215 213 213 209 212 209 206 206 208 206 197 193 201 206 210 214 213 222 233 228 235 241 245 248 255 260 263
213 226 230 224 219 189 252 251 241 199 172 148 212 217 235 223 223 228 203 196 207 212 212 217 205 214 218 215 216 218 215 213 216 211 203 212 215 224 229 230 225 234 236 241 252 256 262 264 266